www.pogodaiklimat.ru

Погода и климат >> Архив погоды >> Таиланд >> Буа Чум


ПОГОДА в Буа Чум

  • Прогноз погоды в Буа Чум
  • Монитор погоды в Буа Чум

АРХИВ ПОГОДЫ в Буа Чум

Время (UTC), дата Ветер
(напр.,м/с)
 
Видим.   Явления Облачность Т
(С)
Тd
(С)
f
(%)
Тe
(С)
Тes
(С)
Комфортность P
(гПа)
Po
(гПа)
Тmin
(С)
Tmax
(С)
R
(мм)
R24
(мм)
S
(см)
18 16.08 Ю 2 10 км {гроза} 8/3 600 м
[Cu Sc Ac As Cs]
+25.8 +23.6 88 +35 +35 очень
душно
1006.5 1000.6
21 16.08 штиль 0 10 км 8/3 600 м
[Cu Sc Ac As Cs]
+26.1 +24.4 90 +36 +36 очень
душно
1006.9 1001.0
00 17.08 ЮЗ 2 4000 м дымка 8/1 600 м
[Cu Sc Ac trans Cs]
+26.0 +25.1 95 +37 +38 очень
душно
1006.9 1001.0 +24.9
03 17.08 штиль 0 7000 м дымка 8/3 600 м
[Cu Sc Ac trans Cs]
+31.5 +25.4 70 +46 +55 опасность
перегрева
1007.9 1002.1
06 17.08 штиль 0 10 км 8/3 300 м
[Cb cap Ac As Cs]
+33.5 +25.5 63 +48 +61 опасность
перегрева
1006.5 1000.8
09 17.08 штиль 0 10 км 9/3 300 м
[Cb cap Ac As Cs]
+32.7 +24.9 64 +46 +50 опасность
перегрева
1004.9 999.2
12 17.08 ЮЗ 4 10 км 9/3 300 м
[Cb cap Ac As Cs]
+29.7 +25.2 77 +43 +43 опасность
перегрева
1006.1 1000.3 +33.9
15 17.08 штиль 0 10 км {дождь} 8/3 600 м
[Cu Sc Ac trans Cs]
+26.5 +25.4 94 +39 +39 очень
душно
1009.5 1003.6 2
18 17.08 штиль 0 10 км {дождь} 8/3 600 м
[Cu Sc Ac trans Cs]
+25.6 +24.9 96 +36 +36 очень
душно
1008.8 1002.9 2
21 17.08 Ю 2 10 км 8/3 600 м
[Cu Sc Ac trans Cs]
+25.5 +24.0 91 +35 +35 очень
душно
1008.4 1002.5
00 18.08 штиль 0 10 км 8/1 600 м
[Cu Sc Ac trans Cs]
+25.7 +24.7 94 +36 +37 очень
душно
1010.4 1004.5 +24.5
03 18.08 ЮЗ 3 10 км 8/1 600 м
[Cu hum Ac trans Cs]
+30.7 +24.9 71 +44 +51 опасность
перегрева
1011.2 1005.4
06 18.08 ЮЗ 4 10 км 10/6 600 м
[Cu Sc Cs]
+33.0 +24.5 61 +46 +50 опасность
перегрева
1008.8 1003.0
09 18.08 ЮЗ 3 10 км 9/3 600 м
[Cu Sc Ci fib]
+33.5 +24.2 58 +45 +49 опасность
перегрева
1006.8 1001.0
12 18.08 Ю 2 10 км 10/8 600 м
[Sc Ac As]
+31.0 +24.6 69 +44 +44 опасность
перегрева
1007.7 1001.9 +34.4
15 18.08 штиль 0 10 км 10/8 600 м
[Sc Ac und Ci fib]
+28.7 +27.0 91 +45 +45 опасность
перегрева
1009.9 1004.1
18 18.08 штиль 0 10 км 4/0
[Ci fib]
+27.7 +24.5 83 +39 +39 очень
душно
1009.1 1003.3
21 18.08 Ю 3 10 км 10/8 600 м
[Cu Sc Cs]
+26.5 +25.4 94 +39 +39 очень
душно
1007.7 1001.8
00 19.08 Ю 2 10 км 9/6 600 м
[Sc Ac As Cs]
+26.0 +24.6 92 +37 +37 очень
душно
1008.6 1002.7 +24.4
03 19.08 Ю 6 10 км 9/8 600 м
[Cu Sc Ac und Ci fib]
+28.5 +24.2 78 +40 +41 очень
душно
1009.5 1003.6
06 19.08 Ю 3 10 км 10/9 300 м
[Cu Sc Ci fib]
+32.8 +24.6 62 +46 +47 опасность
перегрева
1007.3 1001.5
09 19.08 ЮЗ 3 10 км 9/8 600 м
[Cu Sc Ac As Ci fib]
+33.0 +25.3 64 +47 +48 опасность
перегрева
1005.0 999.3
12 19.08 штиль 0 10 км 10/8 600 м
[Sc Ac As]
+30.9 +25.4 73 +45 +45 опасность
перегрева
1005.5 999.7 +33.6
15 19.08 Ю 2 8000 м слаб. дождь 10/8 600 м
[Sc Ac As]
+24.3 +23.1 93 +32 +32 очень
душно
1009.8 1003.8 16
18 19.08 штиль 0 7000 м слаб. дождь 10/8 600 м
[Sc Ac As]
+24.7 +24.3 98 +34 +34 очень
душно
1007.2 1001.3 0.3
21 19.08 штиль 0 10 км {дождь} 10/9 600 м
[Sc Ci fib]
+24.5 +23.8 96 +33 +33 очень
душно
1006.0 1000.0 0.0
00 20.08 штиль 0 5000 м дымка {дождь} 10/8 600 м
[Sc Ac As]
+24.5 +23.8 96 +33 +33 очень
душно
1006.7 1000.8 +23.3 0.2
03 20.08 Ю 6 8000 м дымка 10/6 600 м
[Sc Ac und Cs]
+28.4 +25.7 85 +42 +43 опасность
перегрева
1007.2 1001.3
06 20.08 ЮЗ 2 10 км 10/8 300 м
[Cu Sc Ac As]
+31.3 +25.5 71 +46 +47 опасность
перегрева
1005.4 999.7
09 20.08 ЮЗ 3 10 км 10/8 300 м
[Cu Sc Ac As Cs]
+32.5 +24.7 64 +46 +46 опасность
перегрева
1003.1 997.4
12 20.08 ЮЗ 5 10 км 10/8 600 м
[Cb cap Ac As]
+28.7 +24.5 78 +41 +41 опасность
перегрева
1004.7 998.9 +32.7
15 20.08 штиль 0 6000 м слаб. дождь {гроза} 10/8 600 м
[Sc Ac As]
+25.5 +24.8 96 +36 +36 очень
душно
1006.7 1000.8 14
18 20.08 штиль 0 8000 м дымка {гроза, дождь} 10/8 600 м
[Sc Ac As]
+24.7 +24.3 98 +34 +34 очень
душно
1005.5 999.6 0.5
21 20.08 штиль 0 10 км 8/5 600 м
[Sc Ac und Ci fib]
+24.8 +24.4 98 +35 +35 очень
душно
1004.9 999.0
00 21.08 Ю 2 10 км 9/4 600 м
[Sc Ac und Ci fib]
+24.8 +24.4 98 +35 +35 очень
душно
1005.7 999.8 +23.6
03 21.08 Ю 3 10 км 9/8 600 м
[Sc Ac As Ci fib]
+28.8 +25.2 81 +42 +44 опасность
перегрева
1007.0 1001.1
06 21.08 Ю 4 10 км 8/4 600 м
[Cu Sc Ac As Cs]
+32.4 +24.7 64 +45 +51 опасность
перегрева
1005.3 999.6
09 21.08 Ю 7 10 км 8/4 600 м
[Cu Sc Ac As Ci fib]
+33.1 +24.0 59 +45 +46 опасность
перегрева
1003.3 997.6
12 21.08 ЮЗ 3 10 км 8/4 600 м
[Cu Sc Ac As Cs]
+30.3 +24.7 72 +43 +43 опасность
перегрева
1004.9 999.1 +33.4
15 21.08 Ю 3 10 км в посл. час дождь 10/6 600 м
[Cb cap Ac As]
+25.0 +24.6 98 +35 +35 очень
душно
1008.4 1002.5 4
18 21.08 штиль 0 10 км {дождь} 10/6 600 м
[Cb cap Ac As]
+25.0 +24.3 96 +35 +35 очень
душно
1007.3 1001.4 4
21 21.08 Ю 4 10 км 10/6 600 м
[Sc As trans Cs]
+25.1 +24.5 96 +35 +35 очень
душно
1006.5 1000.6
00 22.08 штиль 0 8000 м дымка 10/5 600 м
[Sc Ac As Cs]
+25.0 +24.3 96 +35 +35 очень
душно
1008.1 1002.2 +24.1
03 22.08 З 4 10 км 9/5 600 м
[Cu Sc Ac lent Cs]
+29.1 +25.4 80 +42 +46 опасность
перегрева
1009.2 1003.3
06 22.08 Ю 4 10 км 10/5 300 м
[Cb cap Ac lent Cs]
+32.4 +25.5 67 +47 +51 опасность
перегрева
1006.8 1001.1
09 22.08 штиль 0 10 км слаб. дождь 9/5 300 м
[Cb cap Ac As Cs]
+30.5 +26.3 78 +46 +49 опасность
перегрева
1005.1 999.3 0.2
12 22.08 Ю 3 10 км {дождь} 9/5 300 м
[Cb cap Ac As Cs]
+29.9 +26.0 80 +45 +45 опасность
перегрева
1006.0 1000.2 +33.4 0.2
15 22.08 Ю 3 10 км 10/5 600 м
[Cu Sc Ac As Cs]
+27.6 +23.4 78 +37 +37 очень
душно
1008.7 1002.8
18 22.08 штиль 0 10 км 10/6 600 м
[Sc Ac cuf]
+25.9 +24.0 89 +36 +36 очень
душно
1008.2 1002.3
21 22.08 штиль 0 10 км 10/6 600 м
[Cu Sc As trans Cs]
+25.5 +24.2 93 +35 +35 очень
душно
1007.7 1001.8
00 23.08 штиль 0 8000 м дымка 10/6 600 м
[Cb cap Ac As]
+25.4 +24.2 93 +35 +35 очень
душно
1009.0 1003.1 +24.4
03 23.08 Ю 2 9000 м {дождь} 10/5 600 м
[Cu Sc Ac As Cs]
+28.5 +25.7 85 +42 +46 опасность
перегрева
1009.8 1004.0 0.6
06 23.08 штиль 0 10 км {дождь} 10/6 600 м
[Cb cap Ac As Cs]
+31.3 +25.5 71 +46 +51 опасность
перегрева
1008.0 1002.2 0.6
09 23.08 штиль 0 10 км 10/5 600 м
[Cb cap Ac As Cs]
+33.0 +26.0 67 +49 +51 опасность
перегрева
1005.5 999.7
12 23.08 штиль 0 8000 м дымка {дождь} 9/5 600 м
[Cu Sc Ac As Cs]
+29.6 +26.5 83 +45 +45 опасность
перегрева
1006.7 1000.9 +33.7 0.2

 

Местоположение метеостанции Буа Чум (Таиланд): широта 15.27 долгота 101.18 высота над уровнем моря 50 м.

В архиве по умолчанию представлена погода в Буа Чум за последнюю неделю. Архивные данные за месяц целиком и за предыдущие месяцы, начиная с января 2011 года, Вы можете получить, выбрав интересующий диапазон дат из раскрывающегося списка и нажав кнопку "Ввод!".


*Определитесь, кто Вы:
робот инопланетянин человек

Внимание! Время в таблицах - всемирное. Для получения местного времени необходимо прибавить поправку, которая равна 7 ч.

Смотрите также архив погоды в соседних городах и на ближайших метеорологических станциях:

Погода в Лаем-Чабанге (Таиланд) (39 км)
Погода в Вичан Бури (Таиланд) (41 км)
Погода в Пакчонг Агромете (Таиланд) (73 км)
Погода в Такфа Агромете (Таиланд) (73 км)
Погода в Лопбури (Таиланд) (81 км)
Погода в Сарабури (Таиланд) (88 км)
Погода в Аюттхая (Таиланд) (97 км)
Погода в Накхон Ратчасима (Таиланд) (102 км)
Погода в Чайнат Агромете (Таиланд) (108 км)
Погода в Чайяпхуме (Таиланд) (108 км)

Пояснения к столбцам:

Ветер - указаны скорость ветра в м/с - средняя за 10 мин, порывы в срок и между сроками (в фигурных скобках) и направление, откуда дует ветер: С - северный, СВ - северо-восточный, В - восточный, ЮВ - юго-восточный, Ю - южный, ЮЗ - юго-западный, З - западный, СЗ - северо-западный.
Видимость - горизонтальная дальность видимости в метрах или километрах. При видимости от 1 до 10 км при отсутствии осадков обычно наблюдается дымка, при ухудшении видимости до 1 км и менее - туман. В сухую погоду видимость может ухудшаться дымом, пылью или мглою.
Явления - указаны атмосферные явления, наблюдавшиеся в срок или в последний час перед сроком; фигурными скобками обозначены явления, наблюдавшиеся между сроками (за 1-3 часа до срока); квадратными скобками обозначены град или гололедные отложения с указанием их диаметра в мм.
Облачность - указаны через наклонную черту общая и нижняя облачность в баллах и высота нижней границы облаков в метрах; квадратными скобками обозначены формы облаков: Ci - перистые, Cs - перисто-слоистые, Cc - перисто-кучевые, Ac - высококучевые, As - высокослоистые, Sc - слоисто-кучевые, Ns - слоисто-дождевые, Cu - кучевые, Cb - кучево-дождевые. Подробнее классификацию облаков см. в Атласе облаков (PDF).
T - Температура воздуха - температура, измеренная на высоте 2 м над землей.
Td - Температура точки росы - температура, при понижении до которой содержащийся в воздухе водяной пар достигнет насыщения.
f - Относительная влажность воздуха - влажноcть воздуха, измеренная на высоте 2 м над землей.
Te - Эффективная температура - температура, которую ощущает одетый по сезону человек в тени. Характеристика душности погоды. При расчете учитывается влияние влажности воздуха и скорости ветра на теплоощущения человека.
Tes - Эффективная температура на солнце - температура, которую ощущает человек, с поправкой на солнечный нагрев. Характеристика знойности погоды. Зависит от высоты солнца над горизонтом, облачности и скорости ветра. Ночью, в пасмурную погоду, а также при ветре 12 м/с и более поправка равна нулю.
P - Атмосферное давление - приведенное к уровню моря атмосферное давление.
Po - Атмосферное давление - измеренное на уровне метеостанции атмосферное давление.
Tmin - Минимальная температура - минимум температуры воздуха на высоте 2 м над землей.
Tmax - Максимальная температура - максимум температуры воздуха на высоте 2 м над землей.
R - Количество осадков - Количество выпавших осадков за период времени, мм. При наведении курсора мыши на число - период времени, за который выпало указанное количество осадков.
R24 - Количество осадков - Количество выпавших осадков за 24 часа, мм.
S - Снежный покров - Высота снежного покрова, см. При наведении курсора мыши на число - состояние снежного покрова и степень покрытия местности в баллах.